International Skating Union - Official Site

ISU World Single Distances Championships 2016
February 11-14, 2016

Draw | Lap Times | Index | Classification

Referee: Jan  BOLT  (NED)
Starter: John Magne  ELIASSEN  (NOR)
StartTime: EndTime: Air Temp: Ice Temp: Humidity:
16:45 18:35 14.7℃ -6.4℃ 36%
Result 10000m Men
Rankings as of Feb 14 2016 2:22PM
Rank: No.: Name: Nation: Time: Behind: Points:
1 59 Sven  Kramer NED NED 12:56.77400m - 33.97 - (33.9)
800m - 1:04.75 - (30.7)
1200m - 1:35.59 - (30.8)
1600m - 2:06.69 - (31.1)
2000m - 2:37.27 - (30.5)
2400m - 3:08.03 - (30.7)
2800m - 3:39.11 - (31.0)
3200m - 4:10.43 - (31.3)
3600m - 4:41.25 - (30.8)
4000m - 5:12.27 - (31.0)
4400m - 5:43.33 - (31.0)
4800m - 6:14.52 - (31.1)
5200m - 6:45.54 - (31.0)
5600m - 7:16.56 - (31.0)
6000m - 7:47.70 - (31.1)
6400m - 8:18.71 - (31.0)
6800m - 8:49.61 - (30.9)
7200m - 9:20.47 - (30.8)
7600m - 9:51.18 - (30.7)
8000m - 10:22.09 - (30.9)
8400m - 10:52.75 - (30.6)
8800m - 11:23.75 - (31.0)
9200m - 11:54.75 - (31.0)
9600m - 12:25.68 - (30.9)
10000m - 12:56.77 - (31.0)
2 7 Ted-Jan  Bloemen CAN CAN 12:59.69400m - 33.71 - (33.7)
800m - 1:03.75 - (30.0)
1200m - 1:34.32 - (30.5)
1600m - 2:05.24 - (30.9)
2000m - 2:36.31 - (31.0)
2400m - 3:07.36 - (31.0)
2800m - 3:38.61 - (31.2)
3200m - 4:10.13 - (31.5)
3600m - 4:41.52 - (31.3)
4000m - 5:13.08 - (31.5)
4400m - 5:44.69 - (31.6)
4800m - 6:16.19 - (31.5)
5200m - 6:47.68 - (31.4)
5600m - 7:18.78 - (31.1)
6000m - 7:49.92 - (31.1)
6400m - 8:21.07 - (31.1)
6800m - 8:52.14 - (31.0)
7200m - 9:23.39 - (31.2)
7600m - 9:54.97 - (31.5)
8000m - 10:26.05 - (31.0)
8400m - 10:56.99 - (30.9)
8800m - 11:27.92 - (30.9)
9200m - 11:58.72 - (30.8)
9600m - 12:29.48 - (30.7)
10000m - 12:59.69 - (30.2)
2.92
3 58 Erik Jan  Kooiman NED NED 13:02.15400m - 37.42 - (37.4)
800m - 1:09.35 - (31.9)
1200m - 1:40.92 - (31.5)
1600m - 2:12.42 - (31.5)
2000m - 2:43.65 - (31.2)
2400m - 3:14.65 - (31.0)
2800m - 3:45.55 - (30.9)
3200m - 4:16.44 - (30.8)
3600m - 4:47.34 - (30.9)
4000m - 5:18.42 - (31.0)
4400m - 5:49.50 - (31.0)
4800m - 6:20.58 - (31.0)
5200m - 6:51.75 - (31.1)
5600m - 7:22.71 - (30.9)
6000m - 7:53.38 - (30.6)
6400m - 8:24.02 - (30.6)
6800m - 8:54.56 - (30.5)
7200m - 9:25.16 - (30.6)
7600m - 9:56.00 - (30.8)
8000m - 10:27.06 - (31.0)
8400m - 10:57.99 - (30.9)
8800m - 11:28.85 - (30.8)
9200m - 11:59.84 - (30.9)
9600m - 12:31.07 - (31.2)
10000m - 13:02.15 - (31.0)
5.38
4 25 Patrick  Beckert GER GER 13:09.42400m - 35.69 - (35.6)
800m - 1:07.18 - (31.4)
1200m - 1:38.96 - (31.7)
1600m - 2:10.56 - (31.6)
2000m - 2:42.18 - (31.6)
2400m - 3:13.92 - (31.7)
2800m - 3:45.65 - (31.7)
3200m - 4:17.32 - (31.6)
3600m - 4:49.13 - (31.8)
4000m - 5:20.81 - (31.6)
4400m - 5:52.34 - (31.5)
4800m - 6:23.88 - (31.5)
5200m - 6:55.36 - (31.4)
5600m - 7:27.03 - (31.6)
6000m - 7:58.57 - (31.5)
6400m - 8:29.96 - (31.3)
6800m - 9:01.44 - (31.4)
7200m - 9:32.70 - (31.2)
7600m - 10:03.85 - (31.1)
8000m - 10:35.11 - (31.2)
8400m - 11:06.25 - (31.1)
8800m - 11:37.22 - (30.9)
9200m - 12:08.06 - (30.8)
9600m - 12:38.69 - (30.6)
10000m - 13:09.42 - (30.7)
12.65
5 6 Jordan  Belchos CAN CAN 13:10.99400m - 35.98 - (35.9)
800m - 1:06.43 - (30.4)
1200m - 1:36.69 - (30.2)
1600m - 2:07.16 - (30.4)
2000m - 2:38.01 - (30.8)
2400m - 3:09.22 - (31.2)
2800m - 3:40.31 - (31.0)
3200m - 4:11.84 - (31.5)
3600m - 4:43.17 - (31.3)
4000m - 5:14.88 - (31.7)
4400m - 5:46.60 - (31.7)
4800m - 6:18.19 - (31.5)
5200m - 6:49.99 - (31.8)
5600m - 7:21.69 - (31.7)
6000m - 7:53.69 - (32.0)
6400m - 8:25.74 - (32.0)
6800m - 8:57.64 - (31.9)
7200m - 9:29.55 - (31.9)
7600m - 10:01.03 - (31.4)
8000m - 10:32.57 - (31.5)
8400m - 11:04.27 - (31.7)
8800m - 11:36.11 - (31.8)
9200m - 12:07.97 - (31.8)
9600m - 12:39.47 - (31.5)
10000m - 13:10.99 - (31.5)
14.22
6 26 Moritz  Geisreiter GER GER 13:12.48400m - 35.83 - (35.8)
800m - 1:07.89 - (32.0)
1200m - 1:39.69 - (31.8)
1600m - 2:10.83 - (31.1)
2000m - 2:42.12 - (31.2)
2400m - 3:13.71 - (31.5)
2800m - 3:45.35 - (31.6)
3200m - 4:16.84 - (31.4)
3600m - 4:48.03 - (31.1)
4000m - 5:19.49 - (31.4)
4400m - 5:50.88 - (31.3)
4800m - 6:22.44 - (31.5)
5200m - 6:54.13 - (31.6)
5600m - 7:25.88 - (31.7)
6000m - 7:57.39 - (31.5)
6400m - 8:28.73 - (31.3)
6800m - 9:00.22 - (31.4)
7200m - 9:31.77 - (31.5)
7600m - 10:03.38 - (31.6)
8000m - 10:35.12 - (31.7)
8400m - 11:06.78 - (31.6)
8800m - 11:38.52 - (31.7)
9200m - 12:10.21 - (31.6)
9600m - 12:41.56 - (31.3)
10000m - 13:12.48 - (30.9)
15.71
7 76 Thomas-Henrik  Søfteland NOR NOR 13:16.94400m - 35.80 - (35.7)
800m - 1:06.97 - (31.1)
1200m - 1:38.48 - (31.5)
1600m - 2:10.25 - (31.7)
2000m - 2:41.71 - (31.4)
2400m - 3:13.23 - (31.5)
2800m - 3:44.81 - (31.5)
3200m - 4:16.52 - (31.7)
3600m - 4:48.15 - (31.6)
4000m - 5:20.19 - (32.0)
4400m - 5:51.74 - (31.5)
4800m - 6:23.26 - (31.5)
5200m - 6:54.89 - (31.6)
5600m - 7:26.55 - (31.6)
6000m - 7:57.96 - (31.4)
6400m - 8:29.49 - (31.5)
6800m - 9:01.30 - (31.8)
7200m - 9:33.12 - (31.8)
7600m - 10:04.95 - (31.8)
8000m - 10:36.97 - (32.0)
8400m - 11:08.98 - (32.0)
8800m - 11:40.94 - (31.9)
9200m - 12:12.73 - (31.7)
9600m - 12:44.46 - (31.7)
10000m - 13:16.94 - (32.4)
20.17
8 94 Yevgeny  Seryaev RUS RUS 13:18.04400m - 36.78 - (36.7)
800m - 1:08.13 - (31.3)
1200m - 1:39.76 - (31.6)
1600m - 2:11.18 - (31.4)
2000m - 2:42.74 - (31.5)
2400m - 3:14.21 - (31.4)
2800m - 3:45.84 - (31.6)
3200m - 4:17.39 - (31.5)
3600m - 4:48.85 - (31.4)
4000m - 5:20.27 - (31.4)
4400m - 5:52.06 - (31.7)
4800m - 6:23.77 - (31.7)
5200m - 6:55.36 - (31.5)
5600m - 7:26.66 - (31.3)
6000m - 7:57.92 - (31.2)
6400m - 8:29.72 - (31.8)
6800m - 9:01.64 - (31.9)
7200m - 9:33.15 - (31.5)
7600m - 10:04.67 - (31.5)
8000m - 10:36.43 - (31.7)
8400m - 11:08.34 - (31.9)
8800m - 11:40.29 - (31.9)
9200m - 12:12.48 - (32.1)
9600m - 12:45.02 - (32.5)
10000m - 13:18.04 - (33.0)
21.27
9 74 Ole Bjørnsmoen   Næss NOR NOR 13:20.53400m - 35.77 - (35.7)
800m - 1:06.97 - (31.1)
1200m - 1:38.42 - (31.4)
1600m - 2:09.62 - (31.2)
2000m - 2:41.12 - (31.5)
2400m - 3:12.45 - (31.3)
2800m - 3:44.03 - (31.5)
3200m - 4:15.59 - (31.5)
3600m - 4:47.38 - (31.7)
4000m - 5:19.34 - (31.9)
4400m - 5:51.32 - (31.9)
4800m - 6:23.08 - (31.7)
5200m - 6:55.13 - (32.0)
5600m - 7:26.86 - (31.7)
6000m - 7:58.65 - (31.7)
6400m - 8:30.40 - (31.7)
6800m - 9:02.47 - (32.0)
7200m - 9:34.09 - (31.6)
7600m - 10:05.92 - (31.8)
8000m - 10:37.66 - (31.7)
8400m - 11:09.79 - (32.1)
8800m - 11:41.79 - (32.0)
9200m - 12:14.46 - (32.6)
9600m - 12:47.30 - (32.8)
10000m - 13:20.53 - (33.2)
23.76
10 51 Seung-Hoon  Lee KOR KOR 13:23.73400m - 36.63 - (36.6)
800m - 1:08.55 - (31.9)
1200m - 1:40.63 - (32.0)
1600m - 2:12.77 - (32.1)
2000m - 2:44.75 - (31.9)
2400m - 3:16.76 - (32.0)
2800m - 3:48.77 - (32.0)
3200m - 4:20.61 - (31.8)
3600m - 4:52.64 - (32.0)
4000m - 5:24.58 - (31.9)
4400m - 5:56.60 - (32.0)
4800m - 6:28.50 - (31.9)
5200m - 7:00.66 - (32.1)
5600m - 7:32.59 - (31.9)
6000m - 8:04.56 - (31.9)
6400m - 8:36.49 - (31.9)
6800m - 9:08.42 - (31.9)
7200m - 9:40.31 - (31.8)
7600m - 10:12.30 - (31.9)
8000m - 10:44.25 - (31.9)
8400m - 11:16.30 - (32.0)
8800m - 11:48.35 - (32.0)
9200m - 12:20.32 - (31.9)
9600m - 12:52.12 - (31.8)
10000m - 13:23.73 - (31.6)
26.96
11 3 Bart  Swings BEL BEL 13:25.59400m - 34.69 - (34.6)
800m - 1:05.89 - (31.2)
1200m - 1:37.21 - (31.3)
1600m - 2:08.50 - (31.2)
2000m - 2:39.85 - (31.3)
2400m - 3:11.41 - (31.5)
2800m - 3:42.78 - (31.3)
3200m - 4:14.07 - (31.2)
3600m - 4:45.36 - (31.2)
4000m - 5:16.86 - (31.5)
4400m - 5:48.36 - (31.5)
4800m - 6:20.14 - (31.7)
5200m - 6:52.09 - (31.9)
5600m - 7:24.35 - (32.2)
6000m - 7:56.61 - (32.2)
6400m - 8:29.23 - (32.6)
6800m - 9:02.21 - (32.9)
7200m - 9:35.21 - (33.0)
7600m - 10:08.14 - (32.9)
8000m - 10:40.98 - (32.8)
8400m - 11:14.05 - (33.0)
8800m - 11:46.85 - (32.8)
9200m - 12:19.69 - (32.8)
9600m - 12:52.47 - (32.7)
10000m - 13:25.59 - (33.1)
28.82
12 78 Peter  Michael NZL NZL 13:25.61400m - 36.45 - (36.4)
800m - 1:08.00 - (31.5)
1200m - 1:39.59 - (31.5)
1600m - 2:11.17 - (31.5)
2000m - 2:42.86 - (31.6)
2400m - 3:13.89 - (31.0)
2800m - 3:45.48 - (31.5)
3200m - 4:16.08 - (30.6)
3600m - 4:47.99 - (31.9)
4000m - 5:19.07 - (31.0)
4400m - 5:50.64 - (31.5)
4800m - 6:22.03 - (31.3)
5200m - 6:53.77 - (31.7)
5600m - 7:25.76 - (31.9)
6000m - 7:57.53 - (31.7)
6400m - 8:29.42 - (31.8)
6800m - 9:01.73 - (32.3)
7200m - 9:34.10 - (32.3)
7600m - 10:06.31 - (32.2)
8000m - 10:38.82 - (32.5)
8400m - 11:11.54 - (32.7)
8800m - 11:44.61 - (33.0)
9200m - 12:18.37 - (33.7)
9600m - 12:51.94 - (33.5)
10000m - 13:25.61 - (33.6)
28.84